TimePDT,TemperatureF,Dew PointF,Humidity,Sea Level PressureIn,VisibilityMPH,Wind Direction,Wind SpeedMPH,Gust SpeedMPH,PrecipitationIn,Events,Conditions,WindDirDegrees,DateUTC
12:53 AM,71.1,51.1,49,30.04,10.0,NE,5.8,-,N/A,,Partly Cloudy,40,2013-07-18 07:53:00
1:53 AM,68.0,51.1,55,30.04,10.0,North,4.6,-,N/A,,Partly Cloudy,360,2013-07-18 08:53:00
2:53 AM,66.9,51.1,57,30.05,10.0,Calm,Calm,-,N/A,,Clear,0,2013-07-18 09:53:00
3:53 AM,66.9,52.0,59,30.05,10.0,East,5.8,-,N/A,,Clear,80,2013-07-18 10:53:00
4:53 AM,64.9,52.0,63,30.06,10.0,ESE,3.5,-,N/A,,Partly Cloudy,110,2013-07-18 11:53:00
5:53 AM,64.0,50.0,60,30.07,10.0,ESE,4.6,-,N/A,,Partly Cloudy,110,2013-07-18 12:53:00
6:53 AM,64.0,48.9,58,30.09,10.0,ESE,4.6,-,N/A,,Partly Cloudy,110,2013-07-18 13:53:00
7:53 AM,68.0,45.0,43,30.09,10.0,SE,4.6,-,N/A,,Clear,130,2013-07-18 14:53:00
8:53 AM,71.1,45.0,39,30.11,10.0,South,4.6,-,N/A,,Clear,190,2013-07-18 15:53:00
9:53 AM,75.0,45.0,34,30.11,10.0,South,4.6,-,N/A,,Clear,180,2013-07-18 16:53:00
10:53 AM,78.1,46.9,33,30.11,10.0,SW,4.6,-,N/A,,Partly Cloudy,220,2013-07-18 17:53:00
11:53 AM,80.1,46.9,31,30.10,10.0,South,6.9,-,N/A,,Partly Cloudy,170,2013-07-18 18:53:00
12:53 PM,82.9,43.0,24,30.09,10.0,SSW,8.1,-,N/A,,Partly Cloudy,200,2013-07-18 19:53:00
1:53 PM,84.9,43.0,23,30.08,10.0,Variable,5.8,-,N/A,,Partly Cloudy,0,2013-07-18 20:53:00
2:53 PM,88.0,37.0,16,30.06,10.0,WSW,6.9,-,N/A,,Partly Cloudy,250,2013-07-18 21:53:00
3:53 PM,88.0,37.9,17,30.04,10.0,Variable,6.9,-,N/A,,Partly Cloudy,0,2013-07-18 22:53:00
4:53 PM,88.0,36.0,16,30.03,10.0,Variable,3.5,-,N/A,,Partly Cloudy,0,2013-07-18 23:53:00
5:53 PM,88.0,37.0,16,30.01,10.0,SE,3.5,-,N/A,,Partly Cloudy,130,2013-07-19 00:53:00
6:53 PM,89.1,37.9,16,30.00,10.0,Calm,Calm,-,N/A,,Partly Cloudy,0,2013-07-19 01:53:00
7:53 PM,86.0,39.0,19,29.99,10.0,NNW,5.8,-,N/A,,Partly Cloudy,340,2013-07-19 02:53:00
8:53 PM,82.9,39.9,22,30.00,10.0,Calm,Calm,-,N/A,,Partly Cloudy,0,2013-07-19 03:53:00
9:53 PM,81.0,41.0,24,30.01,10.0,Calm,Calm,-,N/A,,Clear,0,2013-07-19 04:53:00
10:53 PM,77.0,41.0,28,30.01,10.0,Calm,Calm,-,N/A,,Clear,0,2013-07-19 05:53:00
11:53 PM,70.0,44.1,39,30.02,10.0,Calm,Calm,-,N/A,,Clear,0,2013-07-19 06:53:00